CAPE
0 0 0 0 0 0 0 0 0 0 0 0 0 0 0 0 0 0 0 0 0 21 120 48 157 166 329 1349 1926 2531 2262 2590 2310 2943 1899 1379 1266 1530 2211 2198 2343 2730 2423 2158
0 0 0 0 0 0 0 0 0 0 0 0 0 0 0 0 0 0 0 0 0 9 29 194 229 741 1200 1822 1823 2267 2160 2206 2665 2477 2260 2162 2475 1743 1876 2258 2509 2822 2496 2488
0 0 0 0 0 0 0 0 0 0 0 0 0 0 0 0 0 0 9 0 0 0 77 81 169 553 1110 983 1722 1557 2125 2235 2856 2244 2115 2317 2741 3167 3057 2780 3028 2831 2569 2542
0 0 1 1 0 0 0 0 0 0 0 0 0 0 0 0 0 0 0 11 0 0 0 122 179 459 1262 731 680 897 1505 1544 1956 2476 1376 1867 2008 1910 2477 2942 2617 2632 2622 2463
0 7 9 19 3 28 16 3 4 2 14 0 0 0 0 0 0 0 0 2 28 0 0 0 69 162 195 269 205 246 1162 1663 1550 2109 1949 1362 2464 2268 3596 2911 3359 2727 2649 2477
20 11 43 44 22 38 38 10 1 15 12 0 0 0 0 0 0 0 3 0 12 29 0 0 0 19 0 2 20 57 153 1373 1481 2314 2050 2351 2579 2457 2630 2830 2947 2678 2391 1860
14 16 19 6 26 136 77 58 12 0 0 0 0 0 0 0 0 0 41 53 38 21 0 3 0 0 0 0 0 37 1028 588 1718 1894 2300 2270 3700 2738 4646 3217 2661 2477 1870 2347
39 33 37 1 9 90 118 131 93 0 0 12 69 0 0 0 0 2 3 78 146 85 26 7 5 0 0 0 0 0 88 995 1367 1489 2363 2621 3323 2935 4058 2941 2813 2271 1956 1932
114 42 25 23 47 216 200 90 117 46 54 102 28 44 36 26 5 9 4 16 8 6 4 0 0 0 26 103 829 626 206 446 1192 2486 2897 2875 3017 3563 3299 3293 3947 2701 2446 2580
53 78 29 14 90 117 195 165 158 32 66 9 49 35 1 97 25 11 35 98 124 60 0 5 86 406 872 1177 1349 1224 467 886 2639 2754 2928 3056 3420 3642 3634 3510 3124 2840 2272 2159
64 121 135 105 130 146 242 195 178 110 59 85 0 0 50 79 56 75 7 137 155 9 0 0 208 623 1030 1145 961 1321 489 2477 2723 2983 3253 3251 3390 2939 2686 2823 2424 2383 2348 1766
141 142 144 73 79 118 21 219 121 69 21 100 1 0 0 28 5 3 91 185 78 0 0 0 1138 1187 867 846 727 1245 2141 2487 2900 2974 3046 3028 2671 2456 2378 2134 2204 1969 1875 1328
98 50 77 22 78 66 1 13 29 48 151 1 0 1 0 0 15 60 132 64 6 0 0 0 1004 831 1469 1081 1510 2171 2537 2566 2669 2657 2478 2455 2160 2030 2130 1943 1785 1499 1508 1258
44 63 46 76 66 164 0 66 57 53 149 22 5 0 33 28 13 20 16 4 1 0 0 0 62 979 1948 1820 2041 2365 2331 2373 2447 2156 1904 1864 1902 1858 1767 1586 1514 1397 981 1048
38 64 65 55 102 168 89 90 143 79 2 5 11 0 2 0 1 10 0 7 0 0 0 0 0 1222 1901 1820 1959 2169 2147 2104 1920 1746 1672 1731 1792 1547 1389 1152 1045 923 1139 844
55 12 40 37 40 74 111 110 72 12 7 0 2 4 21 20 0 2 28 1 0 0 0 0 0 1199 1930 1657 1452 2099 2028 1761 1659 1374 1451 1518 1243 940 934 1054 1115 1266 1043 953
43 14 33 0 0 25 28 76 1 0 0 56 111 105 97 20 7 17 82 14 12 0 0 0 0 239 1603 1324 1423 1537 1453 1253 1582 1298 1123 805 699 836 919 951 870 963 1298 925
0 26 4 0 43 0 1 17 18 1 1 13 40 87 117 70 117 16 11 4 55 21 2 0 0 1788 1504 1433 1504 1307 1091 1090 1260 793 472 487 764 775 823 723 828 1043 1094 1094
5 20 20 0 0 1 0 36 88 78 1 41 83 54 40 41 41 15 210 215 257 71 23 0 31 1633 1915 1578 1441 1247 1072 1244 642 420 436 437 836 776 783 632 875 1266 1011 975
9 9 0 0 0 0 128 3 0 0 2 43 16 0 8 19 11 0 66 80 57 99 25 5 20 768 1953 1566 1508 1325 1205 785 556 358 383 400 687 764 446 684 1275 1086 978 981
78 12 0 0 0 5 75 5 0 5 12 4 6 6 0 42 7 1 0 5 37 38 28 2 1 585 1260 1548 1507 1454 964 718 493 432 406 761 851 606 1025 1004 1164 968 926 1014
10 81 156 103 0 13 95 21 0 52 17 9 0 0 0 0 10 3 0 0 8 6 0 0 24 503 1924 1577 1770 1407 1218 743 501 458 667 1025 752 466 861 1090 845 899 929 813
87 132 124 75 176 239 240 187 23 103 66 0 0 0 0 1 9 3 0 0 0 0 0 0 86 1298 1897 1681 1565 1550 1235 651 544 704 938 905 932 778 719 948 1065 798 784 567
83 97 194 161 89 94 214 253 121 76 47 0 0 0 0 0 0 9 9 0 0 0 0 6 313 1412 1535 1614 1615 1490 798 510 505 1187 1018 961 892 746 885 926 880 695 764 554
133 139 27 72 158 74 85 92 100 34 0 0 0 0 0 1 0 4 9 0 0 0 24 242 777 1894 1602 1363 1496 1386 618 613 928 1234 1073 980 725 662 905 406 418 670 167 137
173 128 38 87 88 172 65 99 42 0 0 0 0 0 0 4 0 15 1 8 5 0 38 151 704 1469 1439 1821 1587 1057 487 899 1068 986 1063 863 576 1034 623 250 199 133 63 58
CIN
-0 -0 -0 -0 -0 -0 -0 -0 -0 -0 -0 -0 -0 -0 -0 -0 -0 -0 -0 -0 -0 -60 -12 -52 -33 -40 -72 -128 -143 -151 -152 -127 -172 -121 -224 -301 -314 -283 -184 -192 -128 -86 -148 -153
-0 -0 -0 -0 -0 -0 -0 -0 -0 -0 -0 -0 -0 -0 -0 -0 -0 -0 -0 -0 -0 -58 -50 -14 -28 -42 -100 -127 -137 -164 -195 -197 -158 -201 -258 -236 -168 -211 -187 -145 -121 -86 -122 -114
-0 -0 -0 -0 -0 -0 -0 -0 -0 -0 -0 -0 -0 -0 -0 -0 -0 -0 -1 -0 -0 -0 -22 -28 -33 -64 -95 -128 -146 -216 -246 -237 -186 -247 -272 -239 -175 -78 -45 -80 -102 -88 -93 -88
-0 -0 -0 -0 -0 -0 -0 -0 -0 -0 -0 -0 -0 -0 -0 -0 -0 -0 -0 -1 -0 -0 -0 -25 -36 -46 -78 -119 -193 -274 -282 -319 -267 -235 -336 -259 -237 -202 -92 -68 -109 -94 -69 -73
-0 -1 -1 -2 -0 -1 -1 -1 -0 -0 -0 -0 -0 -0 -0 -0 -0 -0 -0 -0 -8 -0 -0 -1 -16 -28 -40 -71 -166 -293 -270 -244 -280 -233 -265 -301 -127 -159 -35 -61 -41 -79 -68 -72
-2 -7 -8 -2 -14 -30 -2 -2 -5 -0 -0 -0 -0 -0 -0 -0 -0 -0 -0 -0 -2 -4 -0 -0 -0 -29 -0 -37 -132 -302 -356 -223 -261 -197 -245 -187 -133 -118 -69 -54 -55 -61 -72 -116
-3 -0 -9 -16 -10 -12 -4 -0 -0 -0 -0 -0 -0 -0 -0 -0 -0 -0 -4 -0 -1 -8 -0 -20 -0 -0 -0 -0 -0 -150 -96 -255 -188 -186 -149 -169 -35 -128 -20 -64 -69 -62 -118 -41
-0 -0 -4 -0 -10 -4 -11 -2 -0 -0 -0 -0 -26 -0 -0 -0 -0 -8 -31 -0 -14 -4 -3 -6 -9 -0 -0 -0 -0 -0 -40 -141 -177 -189 -99 -90 -26 -70 -14 -58 -25 -80 -83 -80
-0 -0 -3 -0 -9 -1 -0 -1 -6 -6 -2 -0 -6 -31 -9 -31 -1 -19 -26 -24 -42 -94 -16 -0 -0 -11 -106 -74 -19 -66 -171 -175 -117 -23 -12 -28 -26 -14 -25 -24 -16 -26 -52 -15
-0 -0 -0 -0 -0 -2 -0 -1 -2 -6 -0 -3 -11 -1 -15 -13 -43 -37 -29 -2 -7 -39 -0 -17 -90 -3 -6 -14 -26 -31 -114 -86 -9 -4 -9 -4 -6 -10 -17 -16 -23 -21 -45 -22
-2 -2 -6 -0 -0 -0 -1 -0 -0 -3 -3 -0 -0 -0 -4 -13 -69 -27 -41 -1 -10 -112 -0 -0 -19 -7 -27 -44 -20 -18 -88 -6 -5 -2 -1 -3 -3 -31 -48 -23 -27 -32 -21 -29
-0 -2 -0 -1 -2 -53 -69 -1 -54 -6 -51 -0 -0 -61 -0 -28 -94 -188 -4 -0 -4 -6 -0 -0 -9 -17 -58 -64 -11 -15 -8 -5 -1 -2 -1 -2 -24 -57 -33 -28 -18 -20 -11 -22
-9 -0 -0 -13 -1 -50 -5 -56 -5 -13 -1 -0 -0 -16 -0 -17 -52 -11 -78 -25 -22 -0 -0 -0 -7 -15 -7 -0 -7 -1 -4 -2 -0 -0 -6 -16 -51 -52 -22 -21 -24 -14 -7 -12
-3 -0 -0 -0 -0 -20 -5 -60 -17 -61 -1 -4 -0 -4 -19 -14 -23 -99 -63 -30 -1 -0 -0 -0 -53 -8 -1 -1 -0 -0 -1 -1 -1 -2 -36 -55 -46 -37 -30 -33 -24 -17 -38 -14
-0 -0 -0 -0 -0 -0 -2 -39 -23 -2 -1 -0 -2 -0 -1 -0 -2 -5 -0 -47 -0 -0 -0 -0 -0 -1 -0 -43 -5 -0 -3 -2 -5 -21 -50 -41 -32 -39 -35 -48 -37 -42 -10 -13
-0 -4 -0 -16 -1 -0 -0 -11 -3 -0 -0 -0 -0 -2 -3 -140 -0 -97 -45 -1 -0 -0 -0 -0 -0 -1 -13 -81 -8 -6 -1 -3 -11 -50 -47 -32 -50 -75 -59 -33 -22 -7 -5 -7
-1 -0 -0 -0 -0 -2 -9 -23 -10 -0 -0 -10 -10 -56 -29 -2 -0 -7 -3 -0 -1 -0 -0 -0 -0 -27 -9 -76 -50 -24 -23 -11 -8 -25 -40 -77 -89 -65 -45 -30 -19 -11 -6 -34
-0 -0 -0 -0 -0 -0 -5 -10 -21 -7 -52 -9 -2 -4 -22 -15 -2 -4 -35 -3 -0 -2 -0 -0 -0 -15 -6 -50 -73 -52 -9 -3 -10 -52 -92 -100 -56 -46 -38 -31 -12 -15 -22 -27
-0 -0 -0 -0 -0 -0 -0 -9 -4 -3 -3 -32 -1 -6 -14 -31 -46 -44 -4 -23 -21 -3 -2 -0 -33 -11 -18 -54 -74 -24 -2 -1 -40 -85 -86 -66 -40 -43 -31 -40 -13 -15 -15 -11
-0 -0 -0 -0 -0 -0 -0 -15 -0 -0 -0 -37 -0 -0 -0 -0 -0 -0 -26 -38 -42 -57 -5 -4 -54 -14 -3 -40 -76 -49 -3 -16 -46 -75 -56 -40 -23 -49 -83 -35 -6 -10 -10 -5
-0 -0 -0 -0 -0 -0 -13 -32 -0 -1 -1 -12 -0 -2 -0 -0 -0 -0 -0 -34 -37 -2 -11 -4 -7 -16 -15 -34 -58 -51 -3 -17 -35 -34 -31 -6 -53 -72 -26 -28 -15 -5 -3 -3
-12 -0 -0 -0 -0 -0 -4 -1 -0 -1 -24 -14 -0 -0 -0 -0 -0 -0 -0 -0 -10 -1 -0 -0 -72 -20 -21 -22 -45 -54 -13 -9 -17 -21 -10 -37 -64 -33 -20 -10 -7 -2 -5 -2
-0 -2 -0 -3 -1 -5 -7 -1 -14 -3 -0 -0 -0 -0 -0 -0 -0 -0 -0 -0 -0 -0 -0 -0 -49 -4 -32 -28 -37 -46 -5 -10 -12 -6 -50 -36 -35 -36 -33 -4 -1 -4 -12 -9
-1 -0 -0 -0 -25 -1 -1 -0 -4 -19 -9 -0 -0 -0 -0 -0 -0 -0 -0 -0 -0 -0 -0 -31 -20 -3 -18 -43 -43 -62 -7 -14 -11 -26 -50 -38 -35 -24 -9 -3 -8 -15 -8 -10
-0 -0 -2 -0 -0 -1 -0 -0 -0 -3 -0 -0 -0 -0 -0 -0 -0 -0 -0 -0 -0 -0 -83 -12 -2 -3 -16 -56 -38 -46 -11 -6 -7 -32 -31 -30 -43 -34 -9 -3 -5 -9 -7 -19
-0 -0 -0 -0 -1 -0 -2 -0 -19 -0 -0 -0 -0 -0 -0 -0 -0 -0 -2 -0 -1 -0 -83 -34 -2 -10 -25 -16 -23 -7 -11 -2 -15 -9 -15 -24 -48 -0 -9 -20 -6 -1 -44 -37
Wind_Speed
nan nan nan nan nan nan nan nan nan nan nan nan nan nan nan nan nan nan nan nan nan nan 44 nan 41 40 44 63 66 46 49 46 48 47 43 40 42 43 45 52 50 47 44 43
nan nan nan nan nan nan nan nan nan nan nan nan nan nan nan nan nan nan nan nan nan nan nan 49 45 47 61 68 68 51 46 47 47 47 41 41 44 42 48 53 51 44 43 38
nan nan nan nan nan nan nan nan nan nan nan nan nan nan nan nan nan nan nan nan nan nan nan nan 57 56 62 68 71 47 45 47 47 46 42 41 42 41 50 53 45 41 37 35
nan nan nan nan nan nan nan nan nan nan nan nan nan nan nan nan nan nan nan nan nan nan nan 44 58 65 70 72 74 56 49 47 47 47 43 40 43 43 50 50 43 35 33 33
nan nan nan nan nan nan nan nan nan nan nan nan nan nan nan nan nan nan nan nan nan nan nan nan nan 50 59 70 68 62 55 52 46 46 45 44 41 42 50 45 38 34 32 35
nan nan nan nan nan nan nan nan nan nan nan nan nan nan nan nan nan nan nan nan nan nan nan nan nan nan nan nan nan nan 55 56 44 43 46 47 42 43 48 37 35 32 34 34
nan nan nan nan nan 4 nan nan nan nan nan nan nan nan nan nan nan nan nan nan nan nan nan nan nan nan nan nan nan nan 56 51 47 48 50 48 39 44 40 40 34 35 34 32
nan nan nan nan nan nan 19 18 nan nan nan nan nan nan nan nan nan nan nan nan 29 nan nan nan nan nan nan nan nan nan nan 50 48 48 47 43 40 44 39 37 34 35 34 30
18 nan nan nan nan 9 8 nan 9 nan nan 26 nan nan nan nan nan nan nan nan nan nan nan nan nan nan nan 42 36 39 40 42 43 48 45 38 37 36 37 33 33 35 30 28
nan nan nan nan nan 6 9 3 10 nan nan nan nan nan nan nan nan nan nan nan 46 nan nan nan nan 41 43 35 30 32 34 36 37 31 30 31 34 34 34 34 33 33 34 33
nan 25 5 8 10 6 5 6 11 13 nan nan nan nan nan nan nan nan nan 8 43 nan nan nan 42 46 32 29 23 33 31 31 31 31 29 31 29 35 35 32 32 32 32 33
21 20 6 nan nan 36 nan 13 23 nan nan 15 nan nan nan nan nan nan nan 24 nan nan nan nan 51 40 29 22 28 31 30 28 29 29 27 28 32 33 32 31 31 31 30 29
nan nan nan nan nan nan nan nan nan nan 4 nan nan nan nan nan nan nan 61 nan nan nan nan nan 50 37 29 30 33 29 27 27 27 24 27 29 31 32 30 29 30 28 27 27
nan nan nan nan nan 13 nan nan nan nan 11 nan nan nan nan nan nan nan nan nan nan nan nan nan nan 41 35 31 28 26 23 26 24 28 29 29 29 28 28 28 27 23 26 26
nan nan nan nan 7 13 nan nan 11 nan nan nan nan nan nan nan nan nan nan nan nan nan nan nan nan 40 31 39 30 25 27 28 28 28 27 27 27 28 26 24 20 24 24 25
nan nan nan nan nan nan 16 15 nan nan nan nan nan nan nan nan nan nan nan nan nan nan nan nan nan 35 30 36 32 28 27 26 25 25 26 26 27 25 20 18 22 23 23 25
nan nan nan nan nan nan nan nan nan nan nan nan 32 31 nan nan nan nan nan nan nan nan nan nan nan 31 29 32 35 28 27 24 23 23 24 25 19 19 19 18 22 22 25 28
nan nan nan nan nan nan nan nan nan nan nan nan nan nan 26 nan 22 nan nan nan nan nan nan nan nan 31 30 33 33 29 23 21 20 21 20 16 16 18 18 20 18 22 26 24
nan nan nan nan nan nan nan nan nan nan nan nan nan nan nan nan nan nan 37 54 62 nan nan nan nan 39 30 26 28 24 18 15 16 15 14 12 17 17 19 19 16 24 24 21
nan nan nan nan nan nan 19 nan nan nan nan nan nan nan nan nan nan nan nan nan nan nan nan nan nan 47 25 20 23 24 13 15 12 13 10 10 19 19 20 19 21 22 19 20
nan nan nan nan nan nan nan nan nan nan nan nan nan nan nan nan nan nan nan nan nan nan nan nan nan 37 26 20 20 22 14 11 12 12 9 13 22 23 20 18 20 18 18 20
nan nan 22 24 nan nan nan nan nan nan nan nan nan nan nan nan nan nan nan nan nan nan nan nan nan 33 25 16 18 19 11 11 11 11 14 20 23 19 17 21 19 20 21 22
nan 21 20 nan 21 20 18 23 nan 14 nan nan nan nan nan nan nan nan nan nan nan nan nan nan nan 35 28 21 16 18 11 9 12 15 19 19 22 18 17 19 18 18 20 22
nan nan 13 14 nan nan 19 25 13 nan nan nan nan nan nan nan nan nan nan nan nan nan nan nan 39 26 24 16 14 15 12 9 12 18 20 18 18 18 16 16 14 18 18 17
13 10 nan nan 21 nan nan nan 16 nan nan nan nan nan nan nan nan nan nan nan nan nan nan 43 41 26 21 14 11 12 10 8 15 18 18 17 16 15 16 18 12 16 15 9
14 13 nan nan nan 27 nan nan nan nan nan nan nan nan nan nan nan nan nan nan nan nan nan 46 48 30 19 13 10 9 8 11 16 15 15 13 12 14 16 18 20 23 nan nan
Wind_Direction
nan nan nan nan nan nan nan nan nan nan nan nan nan nan nan nan nan nan nan nan nan nan 243 nan 249 261 259 264 262 257 263 267 271 279 286 294 300 301 306 310 316 310 309 314
nan nan nan nan nan nan nan nan nan nan nan nan nan nan nan nan nan nan nan nan nan nan nan 238 248 246 253 257 261 260 262 266 271 278 285 288 293 300 305 309 312 305 308 307
nan nan nan nan nan nan nan nan nan nan nan nan nan nan nan nan nan nan nan nan nan nan nan nan 243 246 253 258 263 261 262 265 271 280 280 285 289 296 302 308 301 301 302 309
nan nan nan nan nan nan nan nan nan nan nan nan nan nan nan nan nan nan nan nan nan nan nan 240 248 247 250 259 262 267 265 267 270 281 284 289 288 299 302 303 300 296 300 312
nan nan nan nan nan nan nan nan nan nan nan nan nan nan nan nan nan nan nan nan nan nan nan nan nan 256 255 257 265 267 267 274 281 285 287 286 296 298 297 296 293 293 301 305
nan nan nan nan nan nan nan nan nan nan nan nan nan nan nan nan nan nan nan nan nan nan nan nan nan nan nan nan nan nan 272 278 284 281 289 290 297 298 297 290 287 293 299 299
nan nan nan nan nan 112 nan nan nan nan nan nan nan nan nan nan nan nan nan nan nan nan nan nan nan nan nan nan nan nan 268 273 276 281 280 288 285 300 288 287 290 298 298 298
nan nan nan nan nan nan 188 210 nan nan nan nan nan nan nan nan nan nan nan nan 215 nan nan nan nan nan nan nan nan nan nan 271 273 275 282 274 284 284 276 286 290 296 301 307
309 nan nan nan nan 227 202 nan 321 nan nan 280 nan nan nan nan nan nan nan nan nan nan nan nan nan nan nan 245 261 273 262 266 275 279 275 275 277 270 277 282 288 300 307 306
nan nan nan nan nan 217 10 5 225 nan nan nan nan nan nan nan nan nan nan nan 216 nan nan nan nan 237 234 234 235 255 257 269 272 273 270 267 262 267 274 278 292 289 293 301
nan 278 239 181 155 236 286 311 347 283 nan nan nan nan nan nan nan nan nan 189 237 nan nan nan 241 239 231 220 219 249 257 265 265 266 261 258 262 265 270 281 283 281 287 297
270 299 330 nan nan 231 nan 178 253 nan nan 212 nan nan nan nan nan nan nan 271 nan nan nan nan 244 230 223 222 238 244 248 255 257 256 254 260 264 269 277 280 279 279 288 294
nan nan nan nan nan nan nan nan nan nan 211 nan nan nan nan nan nan nan 206 nan nan nan nan nan 238 226 221 229 237 238 243 253 257 259 260 261 266 272 275 277 279 286 291 297
nan nan nan nan nan 269 nan nan nan nan 306 nan nan nan nan nan nan nan nan nan nan nan nan nan nan 220 218 230 233 236 239 251 256 258 261 263 268 274 275 276 282 287 293 298
nan nan nan nan 69 84 nan nan 102 nan nan nan nan nan nan nan nan nan nan nan nan nan nan nan nan 211 217 214 221 232 235 241 247 257 262 266 269 273 274 276 284 289 295 301
nan nan nan nan nan nan 180 156 nan nan nan nan nan nan nan nan nan nan nan nan nan nan nan nan nan 188 204 200 192 232 241 245 251 254 262 266 269 272 275 284 286 292 297 301
nan nan nan nan nan nan nan nan nan nan nan nan 240 234 nan nan nan nan nan nan nan nan nan nan nan 190 186 195 191 215 227 234 245 254 259 265 275 278 276 278 289 293 295 288
nan nan nan nan nan nan nan nan nan nan nan nan nan nan 234 nan 220 nan nan nan nan nan nan nan nan 192 183 188 193 200 221 228 246 251 265 274 278 281 279 287 291 293 291 296
nan nan nan nan nan nan nan nan nan nan nan nan nan nan nan nan nan nan 222 204 191 nan nan nan nan 188 187 193 196 187 206 233 244 262 266 281 290 290 296 300 296 287 293 293
nan nan nan nan nan nan 301 nan nan nan nan nan nan nan nan nan nan nan nan nan nan nan nan nan nan 182 185 190 195 184 202 226 246 260 275 298 288 297 297 290 286 292 300 297
nan nan nan nan nan nan nan nan nan nan nan nan nan nan nan nan nan nan nan nan nan nan nan nan nan 183 179 178 191 180 206 234 248 269 289 279 273 281 284 281 287 296 297 294
nan nan 337 328 nan nan nan nan nan nan nan nan nan nan nan nan nan nan nan nan nan nan nan nan nan 172 194 176 193 184 220 250 258 276 278 270 275 277 278 288 299 295 289 295
nan 325 325 nan 330 322 298 325 nan 306 nan nan nan nan nan nan nan nan nan nan nan nan nan nan nan 178 192 192 189 191 246 251 264 267 276 273 279 276 283 297 297 293 298 301
nan nan 336 335 nan nan 325 316 289 nan nan nan nan nan nan nan nan nan nan nan nan nan nan nan 166 179 195 185 193 187 253 245 264 272 274 281 277 279 291 293 291 299 307 303
330 337 nan nan 347 nan nan nan 279 nan nan nan nan nan nan nan nan nan nan nan nan nan nan 177 167 187 188 201 190 185 251 247 261 275 277 280 276 283 283 266 274 287 270 252
330 330 nan nan nan 321 nan nan nan nan nan nan nan nan nan nan nan nan nan nan nan nan nan 171 176 174 192 196 183 214 245 252 263 269 277 282 288 296 295 294 278 246 nan nan